Regional Weather Roundup
Issued by NWS

Home | Current Version | Previous Version | Text Only | Print | Product List | Glossary On
Versions: 1 2 3 4 5 6 7 8 9 10 11 12 13 14 15 16 17 18 19 20 21 22 23 24 25 26 27 28 29 30 31 32 33 34 35 36 37 38 39 40 41 42 43 44 45 46 47 48 49 50
000
ASPQ40 PGUM 010614
RWRPQ
WEATHER ROUNDUP FOR THE MARIANAS AND MICRONESIA
NATIONAL WEATHER SERVICE TIYAN GU
400 PM CHST SAT AUG 01 2015

GUZ001>004-010700-
MARIANA ISLANDS-

CITY           SKY/WX    TMP DP  RH WIND       PRES   REMARKS
GUAM AIRPORT   MOSUNNY   84  79  84 N13       29.75S THUNDER HX  96
ANDERSEN AFB   NOT AVBL
ROTA AIRPORT   NOT AVBL
TINIAN AP      NOT AVBL
SAIPAN AP      NOT AVBL

$$

PMZ161-010700-
REPUBLIC OF PALAU-

CITY           SKY/WX    TMP DP  RH WIND       PRES   REMARKS
KOROR AP       CLOUDY    81  77  89 SW10      29.76F
KOROR WSO      CLOUDY    81  75  83 W7        29.78F

$$

PMZ171>174-010700-
FEDERATED STATES OF MICRONESIA-

CITY           SKY/WX    TMP DP  RH WIND       PRES   REMARKS
YAP AIRPORT    LGT RAIN  81  77  89 N9        29.76S
CHUUK AP       CLOUDY    82  75  78 SW14      29.69F
POHNPEI AP     NOT AVBL
POHNPEI WSO    CLOUDY    79  77  94 SW3       29.78F
KOSRAE AP      NOT AVBL

$$

PMZ181-010700-
REPUBLIC OF THE MARSHALL ISLANDS-

CITY           SKY/WX    TMP DP  RH WIND       PRES   REMARKS
KWAJALEIN AP   CLOUDY    82  77  83 SE5       29.75R HX  91
MAJURO AP      NOT AVBL
MAJURO WSO     PTSUNNY   84  77  79 E7        29.73R HX  94

$$



USA.gov is the U.S. government's official web portal to all federal, state and local government web resources and services.